SCP
0 0 0 0 0 0 0 0 0 0 0 0 0 0 0 0 0 0 0 0 0 0 0 0 0 0 0 0 0 0 0 0 0 0 0 0 0 0
0 0 0 0 0 0 0 0 0 0 0 0 0 0 0 0 0 0 0 0 0 0 0 0 0 0 0 0 0 0 0 0 0 0 0 0 0 0
0 0 0 0 0 0 0 0 0 0 0 0 0 0 0 0 0 0 0 0 0 0 0 0 0 0 0 0 0 0 0 0 0 0 0 0 0 0
0 0 0 0 0 0 0 0 0 0 0 0 0 0 0 0 0 0 0 0 0 0 0 0 0 0 0 0 0 0 0 0 0 0 0 0 0 0
0 0 0 0 0 0 0 0 0 0 0 0 0 0 0 0 0 0 0 0 0 0 0 0 0 0 0 0 0 0 0 0 0 0 0 0 0 0
0 0 0 0 0 0 0 0 0 0 0 0 0 0 0 0 0 0 0 0 0 0 0 0 0 0 0 0 0 0 0 0 0 0 0 0 0 0
0 0 0 0 0 0 0 0 0 0 0 0 0 0 0 0 0 0 0 0 0 0 0 0 0 0 0 0 0 0 0 0 0 0 0 0 0 0
0 0 0 0 0 0 0 0 0 0 0 0 0 0 0 0 0 0 0 0 0 0 0 0 0 0 0 0 0 0 0 0 0 0 0 0 0 0
0 0 0 0 0 0 0 0 0 0 0 0 0 0 0 0 0 0 0 0 0 0 0 0 0 0 0 0 0 0 0 0 0 0 0 0 0 0
0 0 0 0 0 0 0 0 0 0 0 0 0 0 0 0 0 0 0 0 0 0 0 0 0 0 0 0 0 0 0 0 0 0 0 0 0 0
0 0 0 0 0 0 0 0 0 0 0 0 0 0 0 0 0 0 0 0 0 0 0 0 0 0 0 0 0 0 0 0 0 0 0 0 0 0
0 0 0 0 0 0 0 0 0 0 0 0 0 0 0 0 0 0 0 0 0 0 0 0 0 0 0 0 0 0 0 0 0 0 0 0 0 0
0 0 0 0 0 0 0 0 0 0 0 0 0 0 0 0 0 0 0 0 0 0 0 0 0 0 0 0 0 0 0 0 0 0 0 0 0 0
0 0 0 0 0 0 0 0 0 0 0 0 0 0 0 0 0 0 0 0 0 0 0 0 0 0 0 0 0 0 0 0 0 0 0 0 0 0
0 0 0 0 0 0 0 0 0 0 0 0 0 0 0 0 0 0 0 0 0 0 0 0 0 0 0 0 0 0 0 0 0 0 0 0 0 0
0 0 0 0 0 0 0 0 0 0 0 0 0 0 0 0 0 0 0 0 0 0 0 0 0 0 0 0 0 0 0 0 0 0 0 0 0 0
0 0 0 0 0 0 0 0 0 0 0 0 0 0 0 0 0 0 0 0 0 0 0 0 0 0 0 0 0 0 0 0 0 0 0 0 0 0
0 0 0 0 0 0 0 0 0 0 0 0 0 0 0 0 0 0 0 0 0 0 0 0 0 0 0 0 0 0 0 0 0 0 0 0 0 0
0 0 0 0 0 0 0 0 0 0 0 0 0 0 0 0 0 0 0 0 0 0 0 0 0 0 0 0 0 0 0 0 0 0 0 0 0 0
0 0 0 0 0 0 0 0 0 0 0 0 0 0 0 0 0 0 0 0 0 0 0 0 0 0 0 0 0 0 0 0 0 0 0 0 0 0
0 0 0 0 0 0 0 0 0 0 0 0 0 0 0 0 0 0 0 0 0 0 0 0 0 0 0 0 0 0 0 0 0 0 0 0 0 0
0 0 0 0 0 0 0 0 0 0 0 0 0 0 0 0 0 0 0 0 0 0 0 0 0 0 0 0 0 0 0 0 0 0 0 0 0 0
0 0 0 0 0 0 0 0 0 0 0 0 0 0 0 0 0 0 0 0 0 0 0 0 0 0 0 0 0 0 0 0 0 0 0 0 0 0
Wind_Speed
2 2 1 0 1 1 1 2 3 1 2 3 2 3 2 2 4 4 4 9 11 12 12 12 12 12 12 12 12 12 12 12 12 12 12 12 12 13
1 1 1 0 1 1 1 1 2 3 2 2 2 3 3 2 1 2 3 5 8 10 11 11 12 12 12 12 12 12 12 12 13 13 13 13 13 13
1 2 1 1 1 2 2 2 1 2 1 2 2 2 3 3 2 2 2 2 3 6 8 9 10 11 11 12 12 12 13 13 13 13 13 13 13 13
2 2 2 2 3 2 2 2 2 1 1 1 2 2 2 3 3 3 3 3 3 5 6 7 8 9 10 11 11 11 12 12 13 13 13 13 14 14
3 3 2 3 3 3 3 3 2 2 2 1 1 2 2 3 3 3 3 3 4 5 5 5 6 8 8 9 10 11 11 11 12 13 13 13 13 14
6 5 5 4 3 3 3 3 3 3 3 2 2 2 2 3 3 3 3 4 4 5 5 6 7 8 9 9 10 10 10 11 11 12 13 13 13 13
6 6 6 8 8 5 4 3 3 3 3 2 2 2 3 3 3 3 3 4 3 3 4 5 5 4 5 7 9 9 9 10 10 11 12 12 13 13
6 5 7 8 9 10 11 9 7 4 3 2 2 2 2 2 2 3 2 3 4 3 4 5 4 4 5 4 7 9 10 10 9 9 9 10 11 12
6 5 6 7 8 6 8 11 11 12 9 3 2 2 2 2 2 3 2 2 3 4 3 4 3 4 5 6 10 10 10 10 10 10 9 9 10 10
7 7 6 6 7 6 6 7 6 6 6 5 2 3 3 3 2 2 2 3 4 4 2 3 3 3 5 5 7 9 10 10 11 11 11 11 10 11
7 6 6 6 9 9 7 6 6 6 7 10 9 8 8 9 5 3 4 3 3 4 2 2 3 4 4 4 5 9 11 12 12 13 12 12 12 10
5 5 7 6 7 8 5 5 5 5 6 7 8 9 8 9 11 5 2 2 3 4 3 3 3 4 5 3 3 5 7 9 12 13 13 13 12 7
3 2 3 6 7 7 5 3 3 3 4 5 5 5 5 5 6 5 3 2 2 3 4 4 3 3 3 5 4 5 5 6 6 8 10 12 13 9
3 2 2 5 7 7 5 6 7 6 4 4 4 4 4 4 5 5 5 4 3 4 5 4 3 3 4 5 5 4 5 6 6 6 6 9 10 12
2 4 6 8 7 6 9 10 7 5 4 4 3 3 3 4 4 4 5 5 6 6 6 4 4 4 4 5 5 5 6 6 5 5 5 6 6 6
4 6 9 11 8 7 7 6 5 3 3 2 2 3 3 4 4 3 4 4 4 5 6 6 5 5 5 6 7 8 6 5 5 7 6 6 6 6
4 5 5 5 5 5 4 4 4 4 4 3 3 3 3 4 4 4 3 3 4 5 6 6 6 5 6 7 7 7 6 6 7 7 7 8 8 7
7 5 4 4 4 3 3 3 3 3 3 3 3 3 4 4 4 4 4 4 5 6 6 6 6 7 6 5 7 6 5 6 8 8 7 8 9 8
7 4 3 3 2 2 2 2 3 3 3 3 3 4 4 5 5 5 6 5 6 6 7 6 5 5 8 10 6 5 6 9 9 8 7 7 10 10
3 3 2 2 2 2 2 2 2 3 3 3 3 4 4 5 6 6 6 7 7 7 7 6 6 6 7 9 8 10 11 9 8 9 9 8 8 11
2 2 1 1 1 1 1 1 2 2 3 3 3 4 5 5 6 6 7 9 8 7 8 8 8 13 8 6 8 8 7 9 11 10 9 9 9 8
1 1 1 1 0 0 1 1 1 2 3 3 4 5 5 5 6 8 7 7 7 8 9 9 9 8 6 7 9 10 10 10 11 13 13 11 8 7
1 1 1 0 0 0 0 1 1 2 3 4 4 5 5 6 6 6 7 7 8 9 9 9 8 6 6 7 8 9 11 11 8 8 8 11 13 15
Wind_Direction
132 121 120 107 76 100 126 144 149 190 289 295 310 308 280 243 241 221 229 233 230 231 233 237 241 244 245 245 245 245 245 246 247 248 250 251 254 257
143 120 94 62 57 62 76 93 138 162 221 278 287 311 327 316 265 244 251 254 242 241 242 244 247 248 248 247 247 247 247 247 248 248 249 250 252 254
107 104 73 60 54 39 54 61 69 126 188 287 297 325 2 355 346 330 306 285 278 262 257 258 260 261 259 256 255 254 253 251 251 252 253 253 254 255
95 84 58 70 55 40 48 43 39 56 139 287 322 340 357 354 351 353 347 338 310 298 282 276 278 276 272 268 265 263 260 259 257 257 257 257 256 256
85 83 62 73 62 52 51 42 30 36 52 69 326 333 341 1 358 353 354 352 338 329 328 320 314 310 302 291 283 276 272 268 264 261 258 257 257 257
76 74 65 67 69 61 55 40 37 35 33 38 5 349 343 343 13 354 344 346 335 340 352 352 345 340 326 313 301 290 282 275 269 265 263 262 261 260
78 72 69 69 65 61 64 50 50 46 34 29 13 3 355 359 356 341 338 326 321 351 346 335 333 331 325 319 314 310 307 298 286 276 269 266 264 263
91 78 71 55 54 55 58 57 54 52 42 35 15 2 337 330 329 340 342 352 323 329 344 318 331 327 322 317 328 332 332 328 320 306 292 281 273 267
87 78 70 55 45 46 50 49 43 43 46 53 23 336 312 305 323 327 328 311 279 291 329 303 322 321 320 327 334 340 343 339 333 326 317 305 293 282
81 80 75 51 41 48 52 46 35 24 24 32 6 306 306 299 281 278 282 301 293 295 329 291 307 308 316 313 323 344 351 346 340 332 323 313 303 296
77 76 76 62 46 53 56 43 25 6 9 15 16 21 20 21 21 20 3 3 326 305 327 310 301 307 297 294 315 340 341 334 328 324 320 316 310 304
69 58 59 57 48 56 61 50 26 351 353 3 13 15 19 21 26 33 14 353 324 308 325 332 306 325 312 299 313 322 322 317 316 314 314 312 310 306
74 41 20 34 46 53 61 61 26 8 9 15 15 10 8 8 6 4 6 8 332 297 311 323 307 307 281 294 298 295 302 305 307 304 304 306 306 301
66 19 7 35 52 55 57 50 42 43 34 27 20 6 360 353 344 342 343 338 313 288 300 321 305 302 299 299 294 297 302 296 292 292 295 303 304 300
45 44 56 58 54 47 46 47 45 43 36 29 11 345 326 323 330 333 334 335 327 322 334 328 318 305 296 292 293 292 299 295 290 298 300 297 293 296
36 43 53 57 58 51 43 40 39 40 41 19 337 320 325 337 338 333 327 330 328 315 314 315 312 309 299 290 287 291 290 288 300 299 296 292 288 283
58 50 47 45 44 38 34 28 21 18 16 355 347 340 336 336 326 326 325 328 322 309 312 315 312 300 284 281 287 286 291 295 294 298 301 299 293 286
77 63 54 51 52 43 34 16 5 360 350 346 346 342 335 328 324 324 323 318 312 307 306 307 317 318 314 293 254 274 291 294 297 296 291 293 295 292
74 67 60 51 45 38 30 18 355 342 347 355 354 346 339 332 328 324 323 319 314 309 306 305 310 314 318 317 293 266 289 299 299 298 293 289 292 293
68 75 64 52 50 37 21 11 358 353 356 351 343 335 331 327 323 319 317 315 314 311 310 307 304 303 302 301 298 297 291 286 293 298 299 296 288 283
62 66 69 71 60 34 12 3 0 350 340 334 328 324 321 320 315 312 312 313 312 309 309 307 299 302 295 289 291 294 294 291 290 293 298 301 302 300
84 80 71 92 87 6 347 346 346 337 331 323 316 314 312 310 307 308 309 310 308 305 303 301 302 305 301 300 302 303 305 309 305 299 289 283 292 298
134 136 161 173 184 299 305 321 326 315 310 307 306 305 306 307 304 302 302 302 303 305 307 308 310 307 303 302 303 305 308 313 312 314 309 303 296 287